Location: McFarlands Corners
(41.4117°N, 81.3382°W)
Time: 13:30:30
(UTC+00:00)

Courier 1B Rocket - Pass Details

Date: 20 February 2026
Orbit: 920 x 1201 km, 28.2° (Epoch: 10 March)

Event Time Altitude Azimuth Distance (km) Brightness Sun altitude
Rises 01:50:47 0° 246° (WSW) 3,550 8.6 -31.7°
Reaches altitude 10° 01:53:49 10° 233° (SW) 2,622 7.6 -32.3°
Enters shadow 01:56:58 22° 206° (SSW) 1,938 6.6 -32.8°
Maximum altitude 01:58:47 25° 181° (S) 1,820 - -33.2°
Drops below altitude 10° 02:03:56 10° 128° (SE) 2,725 - -34.1°
Sets 02:07:09 0° 116° (ESE) 3,721 - -34.7°
